Hourly Data Report for July 15, 2017

All times are specified in Local Standard Time (LST). Add 1 hour to adjust for Daylight Saving Time where and when it is observed.

LUTSELK'E CS
NORTHWEST TERRITORIES

62°24'56.030" N
110°41'25.070" W
178.90 m
220L002
71529
XLU

Download Data

Hourly Data (July 2017)
Hourly Data Report for July 15, 2017
Temp Definition
°C
Dew Point Temp Definition
°C
Rel Hum Definition
%
Wind Dir Definition
10's deg

Wind Spd Definition
km/h
Visibility Definition
km
Stn Press Definition
kPa
Hmdx Definition


Wind Chill Definition


Weather Definition


TIME
00:00 14.2 4.3 51 LegendMM LegendMM   99.50     LegendNANA
01:00 13.2 4.5 56 LegendMM LegendMM   99.49     LegendNANA
02:00 14.2 3.5 49 LegendMM LegendMM   99.47     LegendNANA
03:00 12.6 4.1 56 LegendMM LegendMM   99.45     LegendNANA
04:00 10.6 3.1 60 LegendMM LegendMM   99.42     LegendNANA
05:00 13.5 4.9 56 LegendMM LegendMM   99.39     LegendNANA
06:00 16.8 6.4 50 LegendMM LegendMM   99.36     LegendNANA
07:00 18.2 7.8 51 LegendMM LegendMM   99.32     LegendNANA
08:00 20.1 5.9 39 LegendMM LegendMM   99.28     LegendNANA
09:00 21.2 4.6 34 LegendMM LegendMM   99.25     LegendNANA
10:00 21.4 5.1 35 LegendMM LegendMM   99.17     LegendNANA
11:00 22.3 5.4 33 LegendMM LegendMM   99.12     LegendNANA
12:00 22.0 5.1 33 LegendMM LegendMM   99.02     LegendNANA
13:00 21.4 5.9 36 LegendMM LegendMM   98.91     LegendNANA
14:00 21.7 7.4 40 LegendMM LegendMM   98.82     LegendNANA
15:00 21.0 9.2 47 LegendMM LegendMM   98.75     LegendNANA
16:00 21.9 9.4 45 LegendMM LegendMM   98.69     LegendNANA
17:00 20.0 10.3 54 LegendMM LegendMM   98.61     LegendNANA
18:00 20.2 10.0 52 LegendMM LegendMM   98.53     LegendNANA
19:00 20.8 9.1 47 LegendMM LegendMM   98.45     LegendNANA
20:00 20.1 8.9 49 LegendMM LegendMM   98.38     LegendNANA
21:00 18.8 8.8 52 LegendMM LegendMM   98.32     LegendNANA
22:00 14.1 8.7 70 LegendMM LegendMM   98.25     LegendNANA
23:00 10.4 7.1 80 LegendMM LegendMM   98.18     LegendNANA

Notes on Data Quality.

Legend

  • E = Estimated
  • M = Missing
  • NA = Not Available
  • ‡ = Partner data that is not subject to review by the National Climate Archives
Date modified: